ONEWEB-0098 (45442 NORAD) Tracking and Keplerian Element Data

This shows tracking and keplerian element data for the satellite.

Feedback or suggestion? Click here.




ElementValue
Catalog45442
NameONEWEB-0098
Epoch Orbit1591
Epoch Day187.58334491
Epoch Year2020
RAAN104.2987
Inclination87.5736
Eccentricity0.0023405
Argument of Perigee267.9035
Mean Anonmoly224.1729
Mean Motion14.9031004
Decay Rate0.00040414
L11 45442U 20020U 20187.58334491 .00040414 00000-0 41181-2 0 9998
L22 45442 87.5736 104.2987 0023405 267.9035 224.1729 14.90310040 15919

Live tracking and technical data element details for ONEWEB-0098 (NORAD 45442). ONEWEB-0098 can be tracked NOW for your location showing map with azimuth and elevation plus other details from your city location.

Track the satellite on the map from your city or location and see movement details for azimuth, elevation, latitude, longitude, range, height, and movement on the map or in text.







IsCatalogInMostPopularTable: catalog: 45442, numindb: 20
Update: records affected: 1



GetName: 45442 ONEWEB-0098

Hit Count: updated at: Mon, 06 Jul 2020 06:42:07 GMT